CDT,Max TemperatureF,Mean TemperatureF,Min TemperatureF,Max Dew PointF,MeanDew PointF,Min DewpointF,Max Humidity, Mean Humidity, Min Humidity, Max Sea Level PressureIn, Mean Sea Level PressureIn, Min Sea Level PressureIn, Max VisibilityMiles, Mean VisibilityMiles, Min VisibilityMiles, Max Wind SpeedMPH, Mean Wind SpeedMPH, Max Gust SpeedMPH,PrecipitationIn, CloudCover, Events, WindDirDegrees
2012-10-1,66,52,38,51,41,35,91,67,33,29.97,29.91,29.85,10,10,10,6,1,,0.00,0,,27
2012-10-2,74,56,38,48,40,34,93,62,23,29.95,29.90,29.86,10,10,5,12,2,17,0.00,0,,30
2012-10-3,69,54,39,55,46,37,94,75,38,30.03,29.98,29.94,10,8,0,9,2,,0.00,4,Fog,121
2012-10-4,69,58,45,55,47,32,89,71,56,30.17,30.06,29.98,10,10,10,21,10,28,0.00,2,Rain-Thunderstorm,214
2012-10-5,54,46,36,33,26,17,74,52,30,30.20,30.15,30.10,10,10,10,20,10,24,0.00,0,,255
2012-10-6,46,39,33,30,26,21,78,60,46,30.22,30.17,30.10,10,10,10,15,7,21,0.00,5,,267
2012-10-7,51,42,33,30,22,12,70,48,22,30.22,30.17,30.12,10,10,10,10,5,21,0.00,4,,243
2012-10-8,61,47,33,32,26,21,72,44,22,30.13,30.03,29.94,10,10,10,28,13,36,0.00,1,,179
2012-10-9,62,52,41,44,37,32,90,61,39,29.94,29.89,29.82,10,10,5,22,15,30,0.08,4,Rain,208
2012-10-10,54,44,33,38,29,24,89,65,34,30.17,30.10,29.95,10,10,10,21,9,28,0.03,1,,245
2012-10-11,66,51,36,41,33,28,74,55,27,30.30,30.12,30.05,10,10,10,22,13,30,0.00,2,,227
2012-10-12,55,42,30,32,25,17,77,51,25,30.48,30.37,30.25,10,10,10,14,7,20,0.00,1,,72
2012-10-13,65,54,43,63,52,32,94,88,57,30.24,29.95,29.76,10,6,2,17,10,24,0.24,8,Rain,159
2012-10-14,67,55,44,62,55,41,94,90,83,29.84,29.64,29.46,10,8,0,25,11,32,0.31,7,Rain,223
2012-10-15,60,50,40,43,39,37,90,72,46,29.98,29.93,29.84,10,10,10,12,7,18,0.00,0,,264
2012-10-16,72,56,41,55,47,37,89,70,48,29.94,29.70,29.50,10,10,10,24,11,32,0.00,0,,141
2012-10-17,67,60,51,58,52,47,93,79,61,29.51,29.43,29.34,10,9,2,21,13,28,0.50,4,Rain-Thunderstorm,184
2012-10-18,51,47,43,47,41,39,92,86,77,29.43,29.38,29.33,10,8,4,22,12,31,0.10,7,Rain,202
2012-10-19,54,46,40,45,42,37,93,88,71,29.70,29.54,29.40,10,9,3,15,5,17,0.03,7,Rain,278
2012-10-20,59,48,38,45,39,35,93,79,51,29.94,29.82,29.70,10,10,10,12,6,,0.00,1,,234
2012-10-21,71,52,35,55,45,33,93,77,47,30.01,29.96,29.93,10,8,3,17,6,21,0.00,0,,116
2012-10-22,61,56,51,61,56,50,94,92,82,29.96,29.93,29.89,10,4,0,8,4,,0.46,7,Fog-Rain-Thunderstorm,63
2012-10-23,74,67,59,67,62,57,95,90,73,29.93,29.89,29.84,10,6,0,13,7,17,0.01,7,Fog-Rain-Thunderstorm,125
2012-10-24,79,70,61,70,64,59,92,84,69,29.93,29.87,29.79,10,10,10,22,10,26,0.00,4,,157
2012-10-25,74,58,41,67,54,34,91,85,76,30.12,29.80,29.63,10,10,2,28,18,41,0.11,6,Rain-Thunderstorm,200
2012-10-26,48,40,33,34,29,26,87,67,43,30.37,30.30,30.14,10,10,10,17,10,23,0.00,2,,291
2012-10-27,44,36,27,30,26,22,87,68,43,30.38,30.34,30.29,10,10,10,14,4,18,0.00,1,,321
2012-10-28,49,38,28,30,26,22,78,64,44,30.35,30.32,30.30,10,10,10,17,4,20,0.00,1,,359
2012-10-29,51,38,26,34,24,15,87,62,25,30.36,30.30,30.15,10,10,10,13,4,17,0.00,0,,332
2012-10-30,48,40,33,29,24,18,78,56,32,30.15,29.97,29.88,10,10,10,25,13,31,0.00,0,,315
2012-10-31,51,40,28,30,22,7,81,57,19,29.91,29.90,29.86,10,10,10,17,9,24,0.00,0,,289